When you browse on this site, cookies collect data to enhance your experience and personalize the content and advertising you see.
Visit our Privacy Policy to learn more. By continuing to use the site, you agree to this use of cookies and data.
  • In United Kingdom
  • List of Countries
  • For 7 days
  • Water Temperature
  • Satellite Maps
  • Weather Map
  • Weather Widgets
  • user-avatar
    Login

    Hourly Weather Vasyl'kove

    Today, 25 April, Thursday

    Time Temperature Precipitation Wind Pressure Humidity
    00:00 +13°C° 0 mm 0 mps 758 mmHg 59%
    01:00 +13°C° 0 mm 0 mps 758 mmHg 60%
    02:00 +12°C° 0 mm 0 mps 758 mmHg 61%
    03:00 +12°C° 0 mm 0 mps 758 mmHg 62%
    04:00 +13°C° 0 mm 1 mps 758 mmHg 64%
    05:00 +12°C° 0 mm 1 mps 758 mmHg 65%
    06:00 +14°C° 0 mm 1 mps 758 mmHg 61%
    07:00 +16°C° 0 mm 1 mps 758 mmHg 57%
    08:00 +19°C° 0 mm 1 mps 758 mmHg 52%
    09:00 +21°C° 0 mm 1 mps 758 mmHg 48%
    10:00 +22°C° 0 mm 1 mps 758 mmHg 44%
    11:00 +22°C° 0 mm 0 mps 758 mmHg 39%
    12:00 +22°C° 0 mm 0 mps 758 mmHg 38%
    13:00 +22°C° 0 mm 0 mps 757 mmHg 38%
    14:00 +24°C° 0 mm 1 mps 757 mmHg 37%
    15:00 +23°C° 0 mm 1 mps 757 mmHg 40%
    16:00 +23°C° 0 mm 1 mps 757 mmHg 44%
    17:00 +22°C° 0 mm 1 mps 756 mmHg 47%
    18:00 +19°C° 0 mm 0 mps 756 mmHg 48%
    19:00 +19°C° 0 mm 0 mps 756 mmHg 48%
    20:00 +18°C° 0 mm 0 mps 756 mmHg 48%
    21:00 +19°C° 0 mm 1 mps 756 mmHg 49%
    22:00 +19°C° 0 mm 1 mps 756 mmHg 50%
    23:00 +18°C° 0 mm 1 mps 756 mmHg 51%

    Tomorrow, 26 April, Friday

    Time Temperature Precipitation Wind Pressure Humidity
    00:00 +18°C° 0 mm 1 mps 756 mmHg 52%
    01:00 +17°C° 0 mm 2 mps 756 mmHg 53%
    02:00 +16°C° 0 mm 2 mps 756 mmHg 54%
    03:00 +16°C° 0 mm 2 mps 755 mmHg 55%
    04:00 +16°C° 0 mm 1 mps 755 mmHg 56%
    05:00 +16°C° 0 mm 1 mps 755 mmHg 58%
    06:00 +18°C° 0 mm 1 mps 755 mmHg 57%
    07:00 +18°C° 0 mm 1 mps 755 mmHg 57%
    08:00 +19°C° 0 mm 1 mps 755 mmHg 57%
    09:00 +20°C° 0 mm 1 mps 755 mmHg 51%
    10:00 +22°C° 0 mm 1 mps 755 mmHg 45%
    11:00 +23°C° 0 mm 1 mps 755 mmHg 40%
    12:00 +23°C° 0 mm 1 mps 754 mmHg 39%
    13:00 +23°C° 0 mm 1 mps 754 mmHg 39%
    14:00 +23°C° 0 mm 2 mps 754 mmHg 38%
    15:00 +23°C° 0 mm 1 mps 754 mmHg 42%
    16:00 +22°C° 0 mm 1 mps 753 mmHg 47%
    17:00 +21°C° 0 mm 1 mps 753 mmHg 51%
    18:00 +21°C° 0 mm 1 mps 753 mmHg 52%
    19:00 +20°C° 0 mm 1 mps 753 mmHg 53%
    20:00 +19°C° 0 mm 1 mps 753 mmHg 53%
    21:00 +18°C° 0 mm 1 mps 753 mmHg 56%
    22:00 +18°C° 0 mm 1 mps 753 mmHg 58%
    23:00 +16°C° 0 mm 1 mps 752 mmHg 60%

    Day after tomorrow, 27 April, Saturday

    Time Temperature Precipitation Wind Pressure Humidity
    00:00 +15°C° 0 mm 1 mps 752 mmHg 61%
    01:00 +14°C° 0 mm 1 mps 752 mmHg 62%
    02:00 +14°C° 0 mm 1 mps 752 mmHg 63%
    03:00 +13°C° 0 mm 1 mps 752 mmHg 62%
    04:00 +13°C° 0 mm 1 mps 752 mmHg 62%
    05:00 +13°C° 0 mm 1 mps 751 mmHg 61%
    06:00 +15°C° 0 mm 1 mps 751 mmHg 56%
    07:00 +16°C° 0 mm 2 mps 751 mmHg 51%
    08:00 +18°C° 0 mm 2 mps 751 mmHg 46%
    09:00 +19°C° 0 mm 3 mps 751 mmHg 43%
    10:00 +21°C° 0 mm 4 mps 751 mmHg 41%
    11:00 +22°C° 0 mm 5 mps 750 mmHg 38%
    12:00 +22°C° 0 mm 5 mps 750 mmHg 38%
    13:00 +22°C° 0 mm 5 mps 750 mmHg 38%
    14:00 +22°C° 0 mm 5 mps 749 mmHg 37%
    15:00 +22°C° 0 mm 4 mps 749 mmHg 41%
    16:00 +22°C° 0 mm 3 mps 749 mmHg 45%
    17:00 +21°C° 0 mm 2 mps 748 mmHg 49%
    18:00 +20°C° 0 mm 2 mps 748 mmHg 52%
    19:00 +18°C° 0 mm 2 mps 748 mmHg 54%
    20:00 +17°C° 0 mm 2 mps 748 mmHg 56%
    21:00 +17°C° 0 mm 2 mps 748 mmHg 56%
    22:00 +17°C° 0 mm 2 mps 748 mmHg 56%
    23:00 +16°C° 0 mm 2 mps 747 mmHg 57%

    28 April, Sunday

    Time Temperature Precipitation Wind Pressure Humidity
    00:00 +16°C° 0 mm 2 mps 747 mmHg 59%
    01:00 +14°C° 0 mm 3 mps 747 mmHg 61%
    02:00 +13°C° 0 mm 3 mps 747 mmHg 63%
    03:00 +13°C° 0 mm 3 mps 747 mmHg 66%
    04:00 +12°C° 0 mm 3 mps 747 mmHg 69%
    05:00 +12°C° 0 mm 3 mps 747 mmHg 72%
    06:00 +13°C° 0 mm 4 mps 747 mmHg 67%
    07:00 +15°C° 0 mm 4 mps 747 mmHg 61%
    08:00 +16°C° 0 mm 5 mps 747 mmHg 55%
    09:00 +17°C° 0 mm 5 mps 747 mmHg 51%
    10:00 +19°C° 0 mm 5 mps 747 mmHg 46%
    11:00 +19°C° 0 mm 5 mps 747 mmHg 42%
    12:00 +20°C° 0 mm 4 mps 746 mmHg 42%
    13:00 +20°C° 0 mm 4 mps 746 mmHg 43%
    14:00 +20°C° 0 mm 3 mps 746 mmHg 44%
    15:00 +21°C° 0 mm 3 mps 746 mmHg 46%
    16:00 +21°C° 0 mm 2 mps 745 mmHg 47%
    17:00 +21°C° 0 mm 2 mps 745 mmHg 49%
    18:00 +19°C° 0 mm 2 mps 746 mmHg 51%
    19:00 +19°C° 0 mm 1 mps 746 mmHg 52%
    20:00 +18°C° 0 mm 1 mps 746 mmHg 54%
    21:00 +16°C° 0 mm 1 mps 746 mmHg 56%
    22:00 +16°C° 0 mm 1 mps 746 mmHg 57%
    23:00 +15°C° 0 mm 1 mps 746 mmHg 59%

    29 April, Monday

    Time Temperature Precipitation Wind Pressure Humidity
    00:00 +13°C° 0 mm 3 mps 747 mmHg 68%
    01:00 +12°C° 0 mm 4 mps 747 mmHg 76%
    02:00 +10°C° 0 mm 6 mps 747 mmHg 85%
    03:00 +9°C° 0 mm 6 mps 748 mmHg 84%
    04:00 +9°C° 0 mm 7 mps 748 mmHg 84%
    05:00 +8°C° 0 mm 7 mps 748 mmHg 84%
    06:00 +8°C° 0 mm 7 mps 748 mmHg 82%
    07:00 +8°C° 0 mm 7 mps 749 mmHg 80%
    08:00 +8°C° 0 mm 7 mps 749 mmHg 79%
    09:00 +8°C° 0 mm 7 mps 749 mmHg 77%
    10:00 +9°C° 0 mm 7 mps 749 mmHg 76%
    11:00 +9°C° 0 mm 7 mps 750 mmHg 75%
    12:00 +9°C° 0 mm 7 mps 749 mmHg 74%
    13:00 +8°C° 0 mm 7 mps 749 mmHg 74%
    14:00 +8°C° 0 mm 7 mps 749 mmHg 74%
    15:00 +8°C° 0 mm 7 mps 749 mmHg 74%
    16:00 +8°C° 0 mm 7 mps 749 mmHg 74%
    17:00 +8°C° 0 mm 7 mps 749 mmHg 74%
    18:00 +6°C° 0 mm 7 mps 750 mmHg 73%
    19:00 +6°C° 0 mm 7 mps 750 mmHg 73%
    20:00 +5°C° 0 mm 7 mps 750 mmHg 72%
    21:00 +5°C° 0 mm 7 mps 750 mmHg 72%
    22:00 +5°C° 0 mm 7 mps 750 mmHg 71%
    23:00 +5°C° 0 mm 7 mps 750 mmHg 71%

    30 April, Tuesday

    Time Temperature Precipitation Wind Pressure Humidity
    00:00 +5°C° 0.2 mm 7 mps 750 mmHg 74%
    01:00 +5°C° 0.2 mm 7 mps 750 mmHg 77%
    02:00 +5°C° 0.2 mm 7 mps 750 mmHg 79%
    03:00 +4°C° 0.5 mm 7 mps 750 mmHg 81%
    04:00 +4°C° 0.5 mm 7 mps 750 mmHg 83%
    05:00 +4°C° 0.5 mm 7 mps 751 mmHg 84%
    06:00 +4°C° 0.3 mm 7 mps 751 mmHg 84%
    07:00 +4°C° 0.3 mm 8 mps 751 mmHg 83%
    08:00 +4°C° 0.3 mm 8 mps 751 mmHg 83%
    09:00 +4°C° 0.5 mm 8 mps 751 mmHg 82%
    10:00 +4°C° 0.5 mm 8 mps 751 mmHg 82%
    11:00 +4°C° 0.5 mm 8 mps 751 mmHg 81%
    12:00 +4°C° 0.9 mm 8 mps 751 mmHg 82%
    13:00 +4°C° 0.9 mm 7 mps 751 mmHg 82%
    14:00 +5°C° 0.9 mm 7 mps 751 mmHg 83%
    15:00 +4°C° 1 mm 7 mps 751 mmHg 83%
    16:00 +4°C° 1 mm 7 mps 751 mmHg 83%
    17:00 +4°C° 1 mm 7 mps 750 mmHg 84%
    18:00 +4°C° 0.2 mm 7 mps 750 mmHg 85%
    19:00 +3°C° 0.2 mm 7 mps 750 mmHg 85%
    20:00 +3°C° 0.2 mm 6 mps 750 mmHg 86%
    21:00 +3°C° 0.1 mm 6 mps 750 mmHg 86%
    22:00 +3°C° 0.1 mm 6 mps 750 mmHg 86%
    23:00 +3°C° 0.1 mm 6 mps 750 mmHg 86%
    Show more